"Pseudo-MPEC" for P10N2gm

Created 2019 Apr 22 11:07:05 UT using Find_Orb

Click here for an explanation of pseudo-MPECs

 
 Astrometry: 
     P10N2gm  C2019 04 08;.'11_AstrometryELAGEyPlO,]h)xLejrbHY!N+]2'nLLAmM@F#F51
     P10N2gm  C2019 04 08gud$=mC2l`*Ub07ILt6-Bb3=redacted;/`8/clickY*(]O_yb,9F51
     P10N2gm  C2019 04 08FadK9hQ3$here^/@K')1?8)xve[R;tRWkWforAmBlexplanationF51

Station data:
(F51) Pan-STARRS 1, Haleakala  (N20.707235 W156.255910)  US/Hawaii.
   Observers N. Primak, A. Schultz, S. Watters, J. Thiel, T. Goggia. Measurer
   PS1 Science Consortium. 1.8-m Ritchey-Chrétien + CCD.

Orbital elements:  P10N2gm
   Perihelion 2018 Feb 26.952597 +/- 290 TT = 22:51:44 (JD 2458176.452597)
Epoch 2019 Apr  9.0 TT = JDT 2458582.5   Earth MOID: 0.6618   AutoNEOCP
M 159.76039757 +/- 120              (J2000 ecliptic)
n   0.39345257 +/- 0.242            Peri.  335.48591 +/- 70
a   1.84448213 +/- 0.757            Node    61.87551 +/- 38
e   0.1105806 +/- 0.259             Incl.   22.31759 +/- 32
P   2.51/914.96d           H 20.3   G  0.15   U 11.8  SR
q 1.64051818 +/- 0.902    Q 2.04844607 +/- 34.9
From 3 observations 2019 Apr. 8 (52.3 min); mean residual 0".01
Residuals in arcseconds: 
190408 F51  .01-  .00     190408 F51  .01+  .01+    190408 F51  .00   .00     

Ephemerides (geocentric):
Date (UTC) HH   RA              Dec         delta   r     elong  mag " sig PA
---- -- -- --  -------------   -----------  ------ ------ -----  --- ---- ---
2019 04 22 11  14 02 14.395   +14 19 08.69  1.0932 2.0428 153.6 22.8 0.0  167
2019 04 22 12  14 02 10.486   +14 18 56.37  1.0932 2.0428 153.6 22.8 0.0  167
2019 04 22 13  14 02 06.577   +14 18 44.00  1.0933 2.0429 153.6 22.8 0.0  167
2019 04 22 14  14 02 02.668   +14 18 31.59  1.0933 2.0429 153.5 22.8 0.0  167
2019 04 22 15  14 01 58.759   +14 18 19.14  1.0933 2.0429 153.5 22.8 0.0  167
2019 04 22 16  14 01 54.851   +14 18 06.66  1.0934 2.0429 153.5 22.8 0.0  167
2019 04 22 17  14 01 50.943   +14 17 54.13  1.0934 2.0429 153.5 22.8 0.0  167
2019 04 22 18  14 01 47.036   +14 17 41.56  1.0935 2.0429 153.5 22.8 0.0  167
2019 04 22 19  14 01 43.128   +14 17 28.95  1.0935 2.0429 153.5 22.8 0.0  167
2019 04 22 20  14 01 39.221   +14 17 16.30  1.0935 2.0429 153.5 22.8 0.0  167
2019 04 22 21  14 01 35.315   +14 17 03.61  1.0936 2.0430 153.5 22.8 0.0  167
2019 04 22 22  14 01 31.409   +14 16 50.87  1.0936 2.0430 153.5 22.8 0.0  167
2019 04 22 23  14 01 27.503   +14 16 38.10  1.0937 2.0430 153.5 22.8 0.0  167
2019 04 23 00  14 01 23.597   +14 16 25.29  1.0937 2.0430 153.5 22.8 0.0  167
2019 04 23 01  14 01 19.692   +14 16 12.44  1.0938 2.0430 153.4 22.8 0.0  167
2019 04 23 02  14 01 15.788   +14 15 59.54  1.0938 2.0430 153.4 22.8 0.0  167
2019 04 23 03  14 01 11.883   +14 15 46.61  1.0938 2.0430 153.4 22.8 0.0  167
2019 04 23 04  14 01 07.979   +14 15 33.64  1.0939 2.0430 153.4 22.8 0.0  167
2019 04 23 05  14 01 04.076   +14 15 20.62  1.0939 2.0431 153.4 22.8 0.0  167
2019 04 23 06  14 01 00.173   +14 15 07.57  1.0940 2.0431 153.4 22.8 0.0  167
2019 04 23 07  14 00 56.271   +14 14 54.47  1.0940 2.0431 153.4 22.8 0.0  167
2019 04 23 08  14 00 52.368   +14 14 41.34  1.0941 2.0431 153.4 22.8 0.0  167
2019 04 23 09  14 00 48.467   +14 14 28.16  1.0941 2.0431 153.4 22.8 0.0  167
2019 04 23 10  14 00 44.566   +14 14 14.94  1.0942 2.0431 153.3 22.8 0.0  167
2019 04 23 11  14 00 40.665   +14 14 01.69  1.0942 2.0431 153.3 22.8 0.0  167
2019 04 23 12  14 00 36.765   +14 13 48.39  1.0943 2.0431 153.3 22.8 0.0  167
2019 04 23 13  14 00 32.865   +14 13 35.05  1.0943 2.0431 153.3 22.8 0.0  167
2019 04 23 14  14 00 28.966   +14 13 21.68  1.0944 2.0432 153.3 22.8 0.0  167
2019 04 23 15  14 00 25.067   +14 13 08.26  1.0944 2.0432 153.3 22.8 0.0  167
2019 04 23 16  14 00 21.169   +14 12 54.80  1.0945 2.0432 153.3 22.8 0.0  167
2019 04 23 17  14 00 17.271   +14 12 41.30  1.0945 2.0432 153.3 22.8 0.0  167
2019 04 23 18  14 00 13.374   +14 12 27.76  1.0946 2.0432 153.3 22.8 0.0  167
2019 04 23 19  14 00 09.477   +14 12 14.18  1.0946 2.0432 153.2 22.8 0.0  167
2019 04 23 20  14 00 05.581   +14 12 00.56  1.0947 2.0432 153.2 22.8 0.0  167
2019 04 23 21  14 00 01.686   +14 11 46.90  1.0947 2.0432 153.2 22.8 0.0  167
2019 04 23 22  13 59 57.791   +14 11 33.20  1.0948 2.0433 153.2 22.8 0.0  167
2019 04 23 23  13 59 53.896   +14 11 19.46  1.0948 2.0433 153.2 22.8 0.0  167
2019 04 24 00  13 59 50.003   +14 11 05.68  1.0949 2.0433 153.2 22.8 0.0  167
2019 04 24 01  13 59 46.109   +14 10 51.86  1.0949 2.0433 153.2 22.8 0.0  167
2019 04 24 02  13 59 42.217   +14 10 37.99  1.0950 2.0433 153.2 22.8 0.0  167
2019 04 24 03  13 59 38.325   +14 10 24.09  1.0950 2.0433 153.1 22.8 0.0  167
2019 04 24 04  13 59 34.434   +14 10 10.15  1.0951 2.0433 153.1 22.8 0.0  167
2019 04 24 05  13 59 30.543   +14 09 56.17  1.0952 2.0433 153.1 22.8 0.0  167
2019 04 24 06  13 59 26.653   +14 09 42.14  1.0952 2.0434 153.1 22.8 0.0  167
2019 04 24 07  13 59 22.763   +14 09 28.08  1.0953 2.0434 153.1 22.8 0.0  167
2019 04 24 08  13 59 18.875   +14 09 13.98  1.0953 2.0434 153.1 22.8 0.0  167
2019 04 24 09  13 59 14.986   +14 08 59.83  1.0954 2.0434 153.1 22.8 0.0  167
2019 04 24 10  13 59 11.099   +14 08 45.65  1.0954 2.0434 153.1 22.8 0.0  167